Погода в Шарое

Россия / Чеченская Республика     42°37′30″N   45°48′01″E
темп.,
°C
ветер,
м/с
пор.,
м/с
влажн.,
%
обл.,
%
осадки,
мм/ч
давл.,
гПа
погр.,
м
6 мая, чт
чт600:00+1ююв328556 0.0 101931
03:00+1ю33844 0.0 101942
06:00+3ю23811 0.0 101778
09:00+12вюв02511 0.0 1013983
12:00+14с13475 0.0 10111614
15:00+14с32524 0.0 10111404
18:00+10ссз22825 0.1 1013201
21:00+6ю22855 0.1 101522
7 мая, пт
пт700:00+6ю3269100 0.0 101439
03:00+4ю326193 0.0 101529
06:00+6ююз225629 0.0 101638
09:00+12с225366 0.0 1015874
12:00+14с4256100 0.1 10151358
15:00+11ссз3376100 1.3 1017925
18:00+9зюз118491 1.0 1018245
21:00+6ю22905 1.0 102027
8 мая, сб
сб800:00+5ю22865 0.0 102023
03:00+5ю32852 0.0 101936
06:00+7ю23801 0.0 101877
09:00+15св12481 0.0 10151148
12:00+19с33417 0.0 10131708
15:00+17ссз325621 0.0 10131007
18:00+14с1175100 0.1 1013147
21:00+10ю4570100 0.1 101477
9 мая, вс
вс900:00+9ю456180 0.0 101386
03:00+8ю45660 0.0 101273
06:00+10ю45625 0.0 1010103
09:00+17ссз1244100 0.0 1008773
12:00+16ссз225381 0.1 1008709
15:00+18с234638 0.1 10071598
18:00+12с4487100 0.3 1011549
21:00+5с3599100 5.5 1019479
10 мая, пн
пн1000:00+1с3499100 1.4 1023300
03:00−1ссв2298100 3.2 1024248
06:00−2ссв2398100 2.6 1025293
09:00−1с1195100 8.6 1025412
12:00−1с1195100 11.1 1024317
15:00+2ссв129048 11.6 1021545
18:00+1св119580 0.1 1022117
21:00−3ю32935 0.1 102632